Wind_Speed
39 39 39 39 39 39 39 40 40 40 40 40 40 41 42 42 43 44 45 45 46 46 47 47 48 48 48 48 48 48 48 49 49 49 49 49 50 50 50 51 51 52 52 52 53 53 54 54 55 55 56 57 57 58 58 59 59 60 61 62 62 63 63 63 66 68 66 63 60 56 54 55 57 59 59 60 61 62 62 61 61 62 63 63 64
38 38 38 38 38 39 39 40 40 40 40 41 41 42 42 43 44 44 45 45 46 46 47 47 47 47 48 48 48 48 48 49 49 49 50 50 50 50 51 51 52 52 52 53 53 54 54 55 55 56 56 57 58 58 59 60 60 61 62 62 63 64 63 63 65 67 67 65 63 59 55 54 56 57 59 60 61 61 63 63 62 62 62 62 64
38 38 38 39 39 40 40 40 40 41 41 41 42 43 44 44 45 45 46 46 46 46 47 47 47 47 47 48 48 48 49 49 49 49 50 50 50 50 51 51 51 52 52 52 53 54 54 55 55 56 57 57 58 59 59 60 60 61 62 63 64 64 64 64 65 67 67 66 65 61 57 56 56 55 58 60 60 60 62 63 63 63 63 62 62
39 40 40 40 40 41 41 41 41 42 42 43 43 44 44 45 45 46 46 46 46 47 47 47 47 47 48 48 48 48 48 49 49 49 50 50 50 50 50 51 51 51 51 52 52 52 53 54 54 55 56 57 58 58 59 60 60 61 62 63 63 64 64 64 65 66 67 66 66 63 60 59 56 55 57 59 60 60 61 62 63 63 64 63 62
40 41 41 41 41 42 42 43 43 43 44 44 44 44 45 45 45 45 46 46 46 47 47 47 48 48 48 48 48 48 48 49 49 49 49 49 50 50 50 50 50 50 51 51 51 52 52 53 53 54 55 56 57 57 58 59 60 61 62 62 63 64 64 65 65 66 66 67 66 64 62 60 58 56 57 59 59 59 60 61 62 62 64 64 63
40 41 41 41 42 42 43 43 44 44 44 44 44 44 45 45 45 46 46 46 47 47 47 47 47 48 48 48 48 49 49 49 49 49 49 49 49 50 50 50 50 50 50 50 50 51 51 52 52 53 54 55 56 56 56 57 59 60 61 62 62 63 64 65 65 66 66 66 65 64 62 61 59 59 58 58 59 59 59 61 61 61 63 64 63
41 42 42 43 43 43 44 44 44 44 44 44 45 45 45 46 46 46 47 47 47 47 47 47 47 47 48 48 48 48 48 48 48 48 49 49 49 49 49 49 49 50 50 50 50 51 51 51 52 52 53 54 55 55 56 57 58 59 60 61 61 61 62 63 64 64 65 65 64 63 62 60 59 59 59 59 59 59 58 59 60 60 61 63 62
44 44 45 45 45 45 45 45 45 45 45 45 45 45 46 46 46 47 47 47 47 47 47 47 47 47 47 47 47 48 48 48 47 47 48 48 48 48 48 48 49 49 50 50 49 50 50 50 50 51 52 52 53 54 55 55 57 57 58 59 59 60 61 61 62 62 63 63 63 61 60 60 59 58 59 60 60 60 59 58 59 59 60 62 62
46 46 46 46 46 46 46 46 45 45 45 45 46 46 46 46 46 46 47 47 47 47 47 47 47 47 47 47 47 47 47 47 46 46 47 47 47 47 47 47 48 49 49 49 49 49 49 49 49 49 50 51 51 52 53 54 55 56 57 57 58 59 59 60 60 60 61 61 61 60 58 59 59 58 59 61 59 59 59 57 58 59 59 60 61
46 46 46 46 46 46 46 46 45 45 45 45 46 46 46 46 47 46 47 47 47 47 47 47 47 47 47 46 46 46 46 46 45 45 45 46 46 47 47 47 48 48 49 49 49 48 48 48 49 48 48 49 49 49 50 52 53 54 55 56 56 57 58 58 59 59 59 60 60 59 57 57 57 57 59 60 58 59 59 57 57 60 59 58 59
47 46 46 46 46 46 46 45 45 45 45 45 45 46 46 46 46 46 46 46 46 46 46 46 46 46 46 46 46 46 45 44 44 43 43 43 43 45 46 47 47 48 48 48 47 47 47 47 47 47 47 47 48 48 49 49 51 52 53 54 54 55 56 57 57 57 57 58 58 57 56 55 55 55 57 58 58 59 58 56 57 60 58 56 56
47 46 46 46 46 46 45 45 44 44 44 45 45 45 45 45 45 45 45 45 45 45 45 45 45 45 46 46 45 45 44 43 42 42 41 41 41 43 44 45 46 46 46 46 45 45 45 45 45 45 46 47 47 48 48 48 49 51 52 52 53 53 53 53 54 55 54 55 55 54 54 53 52 53 55 56 57 58 56 56 57 58 54 52 52
46 46 46 45 45 45 45 45 44 44 44 44 44 44 44 44 44 44 44 44 44 44 44 44 44 44 45 45 44 44 43 42 41 40 39 39 39 40 41 43 44 44 44 44 44 44 44 44 44 44 45 45 46 48 48 48 48 49 51 51 52 52 52 50 49 50 49 48 50 51 50 49 49 51 52 50 51 54 55 55 54 53 50 48 47
46 46 45 45 45 44 44 44 44 44 44 44 44 44 43 43 43 43 44 43 43 43 43 43 43 43 44 44 43 43 41 40 39 39 38 38 37 38 40 41 42 42 42 42 42 41 41 41 42 43 43 43 45 46 48 48 48 48 49 50 50 51 51 49 47 47 46 45 47 49 48 46 46 47 46 43 44 49 51 51 49 47 46 45 42
45 45 44 44 44 43 43 43 43 43 43 43 43 43 42 42 43 43 43 43 43 43 42 42 42 42 42 42 42 41 40 39 38 37 36 36 36 37 39 40 40 40 41 40 39 38 37 38 39 40 40 40 41 43 45 46 47 47 47 48 48 48 48 47 45 44 45 46 48 49 47 45 44 43 41 39 41 44 45 45 45 43 43 42 40
44 44 43 43 43 43 43 43 43 43 42 42 42 42 41 42 42 43 43 42 42 42 42 42 42 41 41 41 41 40 38 37 37 36 35 35 35 37 38 38 38 39 39 38 36 35 34 34 36 37 37 38 38 39 40 41 44 46 45 45 45 44 44 43 41 40 41 44 48 49 48 45 42 41 40 39 39 39 38 39 41 41 41 42 41
43 43 43 42 42 43 43 43 43 43 42 42 42 41 41 42 42 42 43 42 42 42 42 42 42 41 41 41 41 40 38 36 35 34 33 33 34 35 36 37 37 37 37 35 33 31 31 32 33 35 36 35 35 35 35 36 39 41 42 41 40 40 41 40 38 36 36 37 41 44 45 43 39 38 37 37 36 34 33 36 40 40 40 41 40
42 42 42 42 42 43 43 43 44 43 43 43 42 42 42 42 42 43 43 43 42 42 42 42 41 41 41 41 41 40 38 36 35 33 32 31 33 34 34 35 36 36 36 33 30 29 30 32 33 33 34 33 32 32 33 34 35 37 37 36 36 37 38 36 35 36 35 35 35 36 38 38 38 37 35 34 34 32 32 34 37 37 38 38 37
41 42 41 41 42 42 43 43 44 44 44 43 43 43 43 43 43 43 43 43 43 42 42 42 41 41 41 40 40 39 37 36 34 33 31 31 32 32 33 35 36 36 33 31 30 30 31 32 33 33 31 30 31 32 32 33 35 35 34 34 34 36 35 32 31 34 34 35 36 36 36 37 38 38 36 34 34 33 32 32 33 34 36 36 36
42 41 41 42 42 42 43 43 43 44 44 44 44 43 43 43 43 43 43 42 42 42 42 42 42 41 40 40 39 37 36 34 33 32 31 31 31 32 32 34 35 34 31 30 31 33 32 32 33 33 31 30 30 31 31 33 34 35 35 34 35 35 32 28 29 31 31 31 32 35 37 39 40 40 38 36 35 34 33 33 34 34 35 36 36
42 41 42 42 42 42 43 43 44 44 44 45 44 44 43 43 43 42 42 42 42 41 41 41 41 41 40 40 38 35 34 33 32 31 31 31 31 31 31 32 31 30 29 31 33 33 32 32 32 32 32 32 30 29 30 31 32 32 34 35 34 32 29 26 27 29 29 29 29 31 35 40 43 43 41 38 38 36 36 37 36 35 36 36 35
42 42 42 42 42 43 43 43 44 44 44 45 44 43 43 43 42 41 41 41 41 40 40 40 41 40 40 39 37 34 33 32 31 30 30 31 32 31 31 30 28 27 30 33 35 33 32 32 32 30 31 30 28 26 27 28 28 29 31 32 30 29 27 25 25 25 27 29 29 29 32 36 42 46 46 43 40 37 37 38 36 34 34 33 32
43 43 43 43 43 44 44 44 44 44 44 44 44 43 42 42 41 40 40 40 40 39 39 39 39 39 39 38 35 33 31 30 29 28 29 31 31 31 31 29 27 28 32 36 36 35 34 34 32 31 30 28 25 23 23 25 26 27 27 27 27 27 26 25 24 25 27 29 29 30 31 32 37 43 46 46 44 41 38 37 35 33 31 29 29
43 43 43 44 44 44 44 44 43 43 44 43 43 42 41 40 40 39 39 39 39 39 38 38 39 39 38 38 35 31 29 28 26 26 27 29 29 29 31 30 30 32 36 37 37 37 35 34 34 33 31 28 26 24 23 23 24 24 23 23 25 27 27 26 26 26 28 29 29 29 30 30 32 36 39 40 40 38 37 36 34 33 31 30 30
43 43 43 44 44 45 45 44 43 43 43 43 42 42 41 40 39 38 38 38 38 38 37 37 38 38 38 38 36 32 28 27 25 23 24 26 26 27 29 31 32 35 37 38 38 36 33 33 33 32 30 29 29 29 28 26 25 24 23 22 23 27 28 28 27 28 29 29 28 27 27 28 30 31 32 33 34 35 36 37 36 35 34 32 31
42 42 43 44 44 45 45 44 44 43 42 42 42 41 40 40 38 37 37 37 36 36 36 36 37 37 38 37 36 33 29 25 23 22 22 24 25 25 27 29 31 34 37 40 39 35 30 29 30 30 29 29 29 29 28 28 28 28 26 24 24 27 29 30 29 29 29 28 28 27 25 25 27 28 29 32 34 36 38 39 37 35 35 33 32
42 42 43 44 44 45 45 45 44 43 42 42 41 40 39 39 38 37 36 36 36 35 35 35 36 37 38 37 35 33 30 25 23 22 22 24 25 25 26 25 26 29 33 37 39 38 35 31 29 28 27 25 24 23 23 24 27 28 27 25 25 27 30 31 30 28 28 28 28 27 25 24 25 27 28 31 33 35 37 37 36 35 34 33 32
42 42 43 44 44 45 45 45 44 43 42 41 40 39 38 38 37 36 35 35 35 34 34 35 35 36 37 37 36 35 32 27 25 24 24 25 27 26 25 22 21 22 24 27 31 35 35 32 27 25 23 20 20 21 21 19 23 27 26 24 24 26 29 33 33 31 29 28 29 28 27 27 27 27 27 29 30 32 33 33 33 33 33 33 33
42 42 43 44 44 45 45 45 44 44 42 41 40 38 37 37 37 35 34 34 34 33 33 34 35 36 37 37 37 37 35 31 28 25 25 26 28 28 27 25 24 23 20 19 21 24 25 23 21 20 19 17 17 19 18 16 18 23 25 24 23 24 26 31 34 34 31 30 30 29 29 30 29 27 27 27 28 28 29 31 32 32 32 33 33
42 42 43 43 44 45 45 45 45 44 43 42 40 38 36 34 35 35 33 32 31 31 30 31 33 35 37 37 37 37 37 35 31 28 26 27 29 29 28 26 26 24 20 17 18 19 20 18 16 16 14 14 15 15 14 13 14 17 20 22 23 24 25 28 31 33 33 32 31 30 30 30 28 27 26 26 26 26 28 30 31 32 32 33 33
43 43 43 44 44 45 45 45 45 44 44 42 41 39 36 33 31 31 31 30 29 28 27 28 30 33 34 35 36 35 35 34 32 29 28 28 30 29 27 25 26 25 20 17 17 17 19 17 15 13 11 12 14 13 12 11 11 12 15 19 21 23 26 27 29 31 33 34 34 32 31 30 28 27 26 25 24 25 26 28 30 32 33 32 32
44 44 44 44 45 45 45 45 45 45 44 43 41 40 38 35 32 29 27 27 26 26 26 26 28 30 31 33 34 34 34 33 32 29 28 29 30 29 26 24 24 23 20 18 17 16 18 18 16 13 11 10 12 12 11 10 9 9 11 14 17 20 23 26 29 31 32 34 35 34 33 30 28 26 26 25 24 25 25 26 29 32 32 31 31
44 45 45 45 45 45 45 46 45 45 44 43 42 40 39 37 35 31 28 26 23 22 23 25 28 29 29 30 30 31 31 31 31 29 28 29 30 28 25 24 24 22 19 17 16 16 17 19 18 15 12 10 11 11 10 9 8 8 8 7 10 14 19 22 26 29 30 32 34 34 32 30 27 25 24 25 25 24 23 25 28 30 30 30 30
44 44 45 45 46 45 45 45 45 45 44 43 42 40 38 37 36 34 31 28 25 21 19 21 24 28 28 28 27 28 28 28 29 28 28 28 28 27 24 23 23 22 19 16 14 14 16 19 20 18 15 13 11 11 11 10 8 8 7 7 5 7 11 15 19 23 26 28 30 30 29 27 24 22 22 23 24 23 22 25 28 29 30 30 29
43 43 44 45 45 45 44 44 45 44 44 43 42 40 38 37 36 35 33 31 29 26 22 20 21 24 27 27 26 25 26 26 26 26 27 27 27 25 23 22 21 20 18 16 15 13 14 17 20 20 19 16 13 12 12 11 10 8 7 6 6 4 5 9 13 17 20 23 26 28 28 26 23 20 20 21 22 21 22 25 27 28 29 29 28
43 43 43 44 44 44 44 44 44 44 44 43 42 40 39 37 36 35 34 32 31 29 27 23 21 22 24 26 25 24 24 25 25 25 25 25 25 24 23 21 20 19 17 15 15 14 14 15 19 21 21 19 16 14 13 13 12 11 9 6 4 4 3 5 7 11 14 17 20 23 25 25 23 20 20 21 21 21 22 23 25 27 29 28 27
43 43 44 44 44 44 44 43 43 43 43 43 42 41 39 38 36 35 34 32 31 29 28 26 24 22 22 24 24 23 23 23 23 23 23 23 23 23 22 21 20 19 18 16 14 14 14 15 17 20 21 21 19 17 16 14 14 13 12 10 7 5 3 3 4 6 9 12 15 19 22 24 23 21 20 21 21 21 21 22 24 26 28 27 25
42 42 43 43 44 44 44 43 43 43 42 42 42 41 40 38 36 34 33 32 31 29 28 27 26 24 23 22 23 23 22 21 21 21 21 21 21 20 20 20 19 19 18 17 15 14 14 15 16 18 20 21 21 20 18 17 16 15 15 14 12 9 7 5 4 5 7 11 15 19 22 23 22 20 20 21 21 21 22 23 24 26 26 25 25
41 42 42 42 43 43 43 43 43 43 42 42 41 41 40 39 37 35 33 31 30 29 27 26 26 25 24 24 23 22 21 20 20 20 19 19 19 18 18 18 17 17 17 17 16 14 14 14 15 17 18 20 21 21 21 19 18 17 17 17 16 14 12 10 8 7 7 10 14 19 22 21 20 20 21 22 22 23 23 23 24 25 25 25 25
42 42 41 42 42 42 42 42 42 42 42 41 41 40 40 39 38 36 33 32 30 28 27 26 25 25 25 24 24 23 22 20 20 20 19 18 17 17 17 16 15 15 15 16 16 15 14 14 14 15 17 19 21 22 22 22 21 19 19 19 19 18 17 15 13 11 10 11 14 18 21 20 20 21 22 23 24 25 25 25 26 26 26 26 26
42 42 42 42 42 42 41 41 41 41 41 41 41 40 40 39 38 36 34 32 30 29 27 26 25 24 25 25 25 24 24 22 20 19 20 19 18 16 16 15 15 14 14 14 15 15 15 14 14 14 16 17 19 20 22 22 23 22 21 21 21 21 20 19 17 15 14 13 14 17 20 21 20 21 23 24 25 26 26 27 28 28 27 26 26
42 42 42 41 41 42 41 41 40 41 41 41 40 40 39 39 38 36 35 32 30 29 27 26 25 24 24 24 25 24 24 23 21 20 19 19 18 17 16 15 15 14 13 13 13 14 14 14 14 14 15 16 17 18 19 21 22 23 23 23 22 22 22 22 21 20 18 17 16 17 19 21 21 22 25 26 27 27 27 28 28 28 27 27 26
42 42 41 41 41 41 41 41 41 40 40 40 40 40 39 39 38 37 35 33 31 29 28 26 25 24 23 23 24 24 24 23 22 20 19 19 19 18 16 15 15 14 14 13 13 13 13 14 14 14 14 15 15 16 17 19 20 21 23 23 23 24 24 23 23 23 22 21 20 19 20 22 22 24 26 28 28 28 28 28 28 28 28 26 25
42 42 41 41 40 40 40 40 40 40 40 40 40 39 39 38 37 36 35 34 32 30 28 26 25 24 23 23 23 23 23 23 22 20 19 19 18 18 16 15 15 15 14 13 13 12 12 13 13 14 14 14 14 15 15 16 17 19 20 21 22 24 24 25 25 25 25 24 23 22 22 23 24 24 26 28 30 30 29 29 28 28 27 26 24
42 42 42 41 41 40 40 40 40 40 40 39 39 39 39 38 37 36 35 34 32 30 28 27 25 24 23 23 23 22 23 23 22 21 19 19 18 18 17 16 15 14 14 14 13 13 12 12 13 13 14 14 14 14 14 15 16 16 18 19 20 21 23 24 24 25 26 26 26 26 25 25 25 25 26 28 30 32 32 31 30 29 28 27 25
41 41 42 41 41 40 40 40 40 40 40 40 39 39 38 38 37 36 35 34 33 31 29 27 26 24 23 23 23 22 22 22 22 21 20 19 18 18 17 16 15 14 14 14 13 12 12 12 12 13 13 13 13 13 13 14 14 15 16 16 17 19 20 22 23 24 25 26 27 28 28 28 28 27 27 28 29 31 32 32 32 31 30 29 28
41 41 41 41 41 40 40 39 39 39 39 39 39 39 38 38 37 36 35 34 33 32 30 29 27 25 24 23 23 22 22 22 22 21 20 19 18 18 17 16 15 14 14 14 13 12 12 12 12 12 13 13 13 13 13 13 13 14 15 15 16 17 18 19 20 22 23 24 26 28 29 30 30 30 30 30 30 31 31 32 32 32 31 31 30
41 41 41 41 41 40 40 39 39 39 39 39 39 39 38 37 37 36 36 35 33 32 31 30 28 26 24 23 22 22 22 22 22 22 21 19 19 18 18 16 15 15 14 14 13 12 12 12 12 12 12 13 13 13 13 13 13 14 14 15 15 16 16 17 18 19 21 22 24 25 27 29 30 31 32 33 33 33 33 33 33 33 33 32 31
41 41 41 41 41 40 40 39 39 39 39 39 39 38 38 37 37 36 36 35 34 33 31 30 29 27 25 23 22 22 22 22 22 22 21 20 19 18 18 17 16 15 14 14 14 13 12 12 12 12 12 13 13 13 13 14 13 13 14 14 15 15 15 16 17 18 19 20 21 22 24 26 27 28 30 31 33 34 34 35 35 35 34 33 32
42 42 42 41 41 40 39 39 38 38 38 39 39 38 38 37 36 36 35 35 34 33 32 30 29 28 26 25 23 22 22 22 22 22 21 21 20 19 19 18 16 15 15 14 14 13 12 12 12 11 12 12 12 13 13 13 14 14 14 14 15 15 15 15 16 16 17 18 19 20 22 23 24 25 26 28 29 30 31 31 32 32 32 31 31
42 43 42 42 41 41 39 38 38 37 38 38 38 38 38 38 37 36 36 35 34 33 32 31 30 28 27 26 24 22 22 21 21 21 21 21 20 19 19 18 17 16 15 15 14 13 13 12 12 11 11 12 12 12 13 13 14 14 14 14 15 15 15 15 16 16 17 17 18 19 20 21 22 23 23 24 25 26 27 27 27 27 27 28 28
Wind_Direction
307 305 303 302 300 299 297 296 295 294 294 294 294 294 293 293 293 293 293 293 293 292 292 292 291 291 290 289 289 288 287 286 285 284 283 282 281 280 279 278 277 276 276 275 274 273 273 272 272 271 271 270 270 270 269 270 270 270 270 270 270 270 271 271 272 273 273 272 270 268 266 265 264 263 262 261 260 260 258 256 255 255 255 255 254
306 304 303 301 300 299 298 298 297 297 297 297 297 297 297 297 296 296 295 295 294 293 293 292 292 291 290 289 289 288 287 287 286 285 284 283 282 281 280 279 278 278 277 276 276 275 274 273 272 272 271 270 269 269 268 268 268 268 269 269 269 270 270 270 270 271 272 272 271 269 266 264 262 262 262 260 259 259 258 257 255 254 254 254 255
307 306 305 303 302 302 301 301 301 301 301 300 300 300 299 299 298 297 297 296 295 294 294 293 292 291 291 290 289 289 288 287 286 286 285 284 283 282 281 281 280 279 278 277 277 276 275 274 273 272 271 271 270 269 268 268 267 267 267 268 268 269 269 269 269 270 270 270 270 269 266 263 261 260 260 260 259 258 257 257 256 255 254 253 253
309 308 307 306 306 305 304 304 303 303 302 302 301 300 300 299 299 298 297 297 296 295 295 294 293 292 291 291 290 289 288 288 287 287 286 285 284 284 283 282 281 281 280 279 278 277 276 275 274 273 273 272 271 270 269 268 267 267 266 266 267 267 267 267 267 268 268 268 268 267 266 263 261 260 259 259 258 257 256 255 255 255 255 254 253
309 308 308 307 307 306 305 304 304 303 302 302 301 300 300 300 299 299 298 297 297 296 295 295 294 293 293 292 291 290 290 289 288 288 287 287 286 285 284 284 283 282 281 280 279 278 277 276 275 274 273 272 271 270 270 269 268 267 266 265 265 266 265 265 265 265 266 266 266 266 265 263 262 259 257 257 257 256 255 254 254 254 256 255 254
309 308 307 307 306 305 304 304 303 303 302 302 302 301 301 301 300 300 299 298 297 297 296 295 295 294 293 293 292 291 291 290 290 289 289 288 287 286 286 285 284 283 282 281 280 279 277 276 275 275 274 273 271 270 270 269 267 266 265 264 264 264 264 264 264 264 264 264 264 264 263 262 261 259 257 257 256 255 254 254 253 253 254 255 255
311 310 309 308 307 306 306 305 305 305 304 304 303 303 303 302 301 301 300 299 298 298 297 296 295 295 294 293 293 292 291 291 291 291 290 289 289 288 287 286 285 284 282 281 280 279 278 277 276 275 274 273 272 270 269 268 267 266 265 265 264 263 263 263 264 263 263 262 262 262 262 261 259 258 257 256 255 254 254 254 254 253 253 253 254
314 313 312 311 310 309 308 308 307 307 306 306 305 304 304 303 302 301 300 300 299 298 298 297 296 295 294 294 293 293 292 292 292 292 291 290 290 289 288 287 286 285 284 283 282 281 280 279 277 276 275 274 273 271 270 268 268 266 265 265 264 263 263 262 262 263 263 262 261 260 260 259 258 257 256 255 254 254 253 253 253 253 253 253 253
314 314 313 312 311 310 309 309 308 308 307 306 306 305 304 304 303 302 301 301 300 299 298 298 297 296 295 295 294 294 293 293 293 293 292 292 291 290 288 287 285 284 283 282 280 279 278 277 276 275 274 273 272 272 271 270 269 267 266 265 264 263 262 262 261 261 261 261 260 259 258 257 256 256 255 255 254 254 254 252 252 252 251 253 253
314 314 312 312 311 310 310 309 309 308 307 307 306 305 305 305 304 303 302 302 301 300 299 299 298 297 296 296 295 294 294 294 294 294 294 293 293 291 289 287 286 284 283 281 280 279 279 277 276 274 273 272 271 270 269 268 267 267 266 265 264 263 262 261 260 259 259 259 258 258 256 255 254 254 255 255 255 254 253 252 252 252 250 251 253
315 313 312 312 311 310 310 309 309 308 308 307 306 306 306 305 304 303 303 302 301 301 300 299 299 298 297 296 295 295 294 295 294 294 293 293 292 291 289 288 287 286 285 284 284 283 282 281 280 278 277 275 273 271 268 267 266 265 264 263 262 262 262 261 260 258 258 257 257 256 255 253 252 252 253 254 253 253 253 252 251 251 252 251 252
315 314 313 313 312 311 311 310 310 309 308 307 307 307 306 305 305 304 303 303 302 301 301 300 299 299 298 297 296 295 295 295 295 294 293 292 291 289 288 287 287 286 286 286 285 284 283 282 282 281 280 278 277 274 272 269 267 265 264 262 261 259 259 259 259 259 257 257 256 255 254 252 251 251 251 252 252 252 253 252 251 252 253 253 252
315 315 314 314 313 312 312 311 311 310 309 309 308 308 307 306 305 304 304 304 303 302 302 301 300 300 299 298 297 297 296 296 295 294 293 291 290 288 286 286 285 285 285 285 284 284 284 283 282 281 280 280 279 277 275 272 269 267 264 263 260 258 256 255 255 256 256 256 256 254 252 251 250 250 250 250 251 252 252 252 253 255 255 253 251
317 316 316 315 314 313 312 312 311 310 310 309 309 309 308 307 307 306 305 305 304 304 303 302 302 301 300 299 298 298 298 297 295 294 293 291 288 286 284 283 284 283 283 283 282 283 283 283 283 282 282 282 281 279 278 275 272 269 266 263 260 258 256 253 251 251 250 249 252 252 250 249 248 248 249 248 250 252 253 254 254 254 253 250 248
318 317 317 316 315 314 312 312 311 310 310 309 309 309 308 308 307 307 307 307 306 306 305 304 304 303 302 301 300 299 299 298 296 294 292 290 286 283 282 282 281 281 280 280 280 280 281 282 283 283 282 282 282 282 281 278 276 272 268 265 261 258 255 252 250 249 246 243 245 247 247 246 245 245 246 247 249 252 253 253 252 251 249 247 244
318 317 317 316 315 314 312 312 311 310 309 309 308 308 308 308 307 307 307 307 307 307 307 307 306 305 305 304 302 301 300 298 296 294 291 288 285 282 281 281 280 279 278 278 278 278 278 279 282 284 285 284 284 284 283 281 278 274 269 266 262 258 254 249 247 248 247 244 243 243 243 243 243 243 244 246 250 253 252 249 247 246 245 244 241
319 319 318 316 315 314 312 312 311 310 309 308 308 307 307 307 307 307 307 307 307 308 307 308 308 308 307 306 304 303 301 299 296 293 290 287 283 280 280 279 279 277 276 276 276 276 277 278 282 284 286 286 286 287 287 282 277 274 271 266 262 256 250 245 242 243 243 243 243 243 244 243 242 241 242 244 248 251 249 244 242 241 241 240 238
321 320 318 317 315 314 313 312 311 310 309 308 307 307 306 306 306 306 307 307 307 307 307 308 308 308 308 307 306 305 303 301 297 293 290 286 282 281 279 278 277 275 274 275 275 274 276 279 283 285 287 289 289 290 289 283 277 274 271 265 258 251 244 241 240 240 237 236 236 237 241 242 240 238 238 240 243 245 243 239 238 237 236 237 237
322 321 319 317 316 314 313 312 311 310 309 308 307 307 306 305 305 306 306 307 307 308 308 308 308 309 309 308 307 306 304 301 298 295 292 287 283 282 280 277 276 274 273 274 274 272 272 278 284 287 292 296 294 290 286 281 277 276 273 265 255 245 239 238 239 240 237 234 232 230 232 233 233 234 235 234 235 239 240 238 236 235 235 235 236
323 321 319 318 316 314 313 312 311 311 309 308 307 307 306 305 304 305 305 305 306 307 307 307 307 308 309 308 308 307 304 301 298 296 292 288 285 282 279 276 274 273 272 273 271 270 272 280 287 290 294 296 292 285 281 277 274 273 273 267 254 243 238 237 238 239 239 238 236 234 231 228 227 229 231 230 230 231 233 235 234 234 235 235 236
323 322 320 319 317 315 314 313 312 311 310 309 308 307 306 305 304 304 304 304 304 305 305 306 306 307 308 308 308 308 305 301 298 295 291 287 284 281 278 275 271 269 270 269 267 269 276 284 289 291 294 295 292 285 279 275 272 270 269 267 255 244 241 241 239 240 241 240 237 236 234 230 227 226 228 230 230 227 228 233 234 234 236 237 238
324 323 322 320 318 317 316 315 314 313 312 310 309 308 307 306 306 305 304 303 303 303 304 304 304 305 306 307 308 308 305 301 298 294 290 287 285 282 278 273 267 265 267 267 266 269 276 282 287 291 291 292 294 291 282 277 273 268 267 265 255 244 243 245 244 242 243 241 238 235 234 231 228 227 227 228 230 228 227 232 236 237 239 241 243
325 324 323 321 320 319 318 317 316 315 314 312 311 310 309 308 307 306 305 304 303 303 303 303 303 304 305 306 308 308 304 300 297 293 289 286 283 281 277 271 263 258 261 264 266 269 273 278 283 287 286 285 290 290 281 274 272 270 269 264 251 240 238 240 241 241 241 241 239 236 234 233 231 230 229 229 231 231 229 231 237 241 243 245 246
326 325 324 322 321 320 320 319 318 317 315 314 313 312 311 309 309 307 306 305 304 303 303 303 303 304 305 306 308 307 304 301 297 291 286 284 281 278 276 271 261 255 256 261 264 268 272 277 280 282 282 282 284 282 273 266 266 269 270 262 247 237 233 232 236 239 239 239 239 236 235 235 233 231 231 231 233 233 231 233 238 242 243 244 244
326 326 325 324 323 322 321 321 320 318 317 315 314 314 312 311 310 309 307 306 305 304 304 304 304 304 305 305 307 308 307 303 297 290 285 282 280 276 274 270 264 258 255 257 262 266 272 276 278 279 282 283 282 278 270 261 258 259 260 255 243 234 230 229 231 236 237 238 240 239 238 238 236 234 232 232 233 232 231 234 237 239 240 240 238
328 327 326 325 324 323 323 322 322 320 318 316 315 315 314 313 312 311 309 307 306 306 305 305 305 304 303 304 307 309 310 307 301 295 291 287 283 278 275 273 270 264 259 258 259 263 268 275 278 279 280 282 282 279 271 261 254 252 251 247 239 232 229 227 229 233 236 237 239 241 240 241 240 236 233 232 231 231 233 235 236 238 240 238 234
329 328 327 326 325 325 325 324 323 322 319 317 316 315 315 314 313 312 311 309 308 307 306 305 304 303 303 305 307 309 311 312 310 305 301 296 290 284 281 279 274 268 264 261 260 260 263 270 275 276 278 283 289 291 283 266 253 248 246 243 238 234 230 226 227 234 236 235 236 239 239 240 238 234 231 232 232 234 236 237 237 237 238 235 231
330 329 328 327 327 327 327 326 325 323 321 319 317 316 315 314 313 313 312 310 309 308 306 305 305 305 305 307 310 311 313 317 317 313 307 303 298 294 295 296 291 282 273 267 263 261 259 262 267 270 277 290 301 305 300 279 254 245 242 238 235 235 231 225 226 232 233 230 232 235 235 235 234 230 228 231 233 235 236 236 235 234 233 230 227
330 330 329 328 328 328 328 328 327 326 323 321 319 317 316 315 314 313 312 311 310 310 310 309 308 307 307 310 313 314 315 318 318 314 310 308 305 304 307 311 309 301 289 278 269 259 251 253 261 268 279 298 309 307 303 291 265 248 241 237 232 230 230 227 227 231 232 230 230 232 234 235 233 230 230 231 232 234 235 233 231 230 228 226 223
331 331 330 330 329 330 330 330 329 328 326 324 321 319 317 316 315 314 314 313 312 311 310 309 307 306 307 310 312 313 313 315 316 314 311 308 304 304 309 311 309 304 297 288 275 256 243 247 260 268 282 309 319 309 302 296 276 255 247 243 236 231 229 229 229 231 233 233 231 231 234 237 235 232 232 233 234 234 233 230 228 226 224 222 220
331 331 331 331 331 331 332 332 331 330 328 326 324 322 320 317 315 314 314 313 310 308 307 305 303 302 304 306 308 308 309 310 310 310 308 304 302 304 309 310 306 303 299 291 278 258 244 247 258 267 282 308 317 310 303 298 284 267 256 250 243 236 232 230 230 230 231 233 234 233 235 239 238 235 233 233 235 237 234 230 226 224 221 218 216
331 332 332 331 332 332 333 333 333 332 331 329 326 324 322 319 316 314 313 312 309 307 304 302 299 298 300 302 303 305 305 306 306 306 305 302 301 305 309 308 305 302 297 289 280 264 246 242 249 260 271 290 300 299 297 294 289 284 273 257 246 240 233 230 230 230 229 232 234 235 237 240 241 240 237 235 236 237 234 229 226 223 219 214 212
332 332 332 331 332 333 333 333 333 333 332 331 329 326 324 321 319 316 314 312 310 306 302 299 297 296 297 297 299 300 302 302 303 304 303 300 301 305 309 307 304 302 297 287 279 267 251 241 244 253 260 271 281 284 283 284 289 299 303 286 256 242 234 230 230 229 229 230 234 236 237 238 240 242 240 235 235 236 232 226 224 221 214 209 207
332 333 332 331 331 332 333 333 334 334 334 333 331 329 326 323 321 319 316 314 311 309 303 296 294 294 295 296 298 298 298 298 298 299 299 298 300 304 307 306 304 303 300 291 279 266 252 242 241 247 254 260 267 270 270 272 279 293 313 328 311 255 232 228 228 228 227 228 231 232 231 230 234 238 236 232 233 233 227 221 219 215 207 202 201
333 333 332 331 331 331 332 333 333 334 335 334 333 331 328 325 323 321 318 316 315 313 311 303 296 294 295 297 299 300 299 298 297 298 298 298 300 304 306 305 304 303 300 295 285 274 260 245 240 243 249 252 256 261 262 261 264 271 284 312 327 302 241 225 226 226 225 225 227 228 225 222 223 225 224 225 228 226 221 218 214 207 200 195 194
333 333 332 331 331 331 332 332 333 334 335 335 335 333 331 328 325 323 320 318 316 315 314 311 304 298 297 299 302 304 303 301 299 298 299 299 300 304 305 305 304 302 298 292 283 277 268 254 242 240 244 248 250 254 256 255 255 257 256 262 286 300 277 241 228 224 224 224 223 221 218 214 211 208 210 219 222 218 213 210 205 197 191 189 191
333 333 332 332 331 331 332 332 332 333 335 335 335 335 333 330 328 325 322 319 317 315 314 312 308 303 299 300 302 304 305 302 299 299 300 300 301 303 305 305 303 301 298 292 283 275 269 261 249 241 241 244 247 249 252 252 249 248 248 247 245 246 256 261 244 227 220 214 209 204 201 201 199 198 205 215 216 209 202 197 192 188 187 189 194
333 333 333 332 332 332 332 332 333 333 334 335 335 336 335 332 330 327 324 321 318 316 314 313 310 306 302 300 301 303 305 303 299 298 299 299 299 299 300 300 298 296 294 290 284 276 268 262 256 247 242 242 244 247 249 251 248 244 243 243 240 234 229 228 233 231 219 207 199 194 192 193 193 196 205 212 209 202 196 191 187 187 189 192 196
334 334 333 332 332 332 332 333 333 333 334 335 335 336 336 334 332 329 327 324 321 317 314 313 310 307 305 303 302 303 305 304 301 297 295 296 295 295 296 296 295 293 292 289 285 279 271 264 258 253 247 244 244 245 247 249 249 246 242 240 239 237 231 223 217 216 213 208 201 196 195 195 195 197 204 208 204 197 193 189 188 189 192 194 196
334 335 334 333 333 333 333 333 333 334 334 334 334 335 336 335 334 332 329 327 324 320 316 313 311 308 306 305 304 304 305 306 304 300 298 298 298 296 296 296 295 292 290 288 284 279 274 268 261 255 251 247 245 245 246 246 247 246 244 241 239 237 235 230 223 214 208 206 203 201 201 201 198 197 202 206 202 195 189 185 185 188 192 195 198
335 335 335 335 334 334 334 334 334 334 334 334 334 335 335 336 336 334 332 329 326 322 319 315 312 309 307 305 305 305 306 307 308 305 302 302 302 301 299 298 297 295 291 288 284 279 274 270 264 258 254 250 246 245 245 245 245 244 243 241 240 238 236 234 230 223 214 208 205 204 204 204 201 198 200 203 202 197 191 188 188 190 193 197 200
336 336 336 336 335 334 334 335 335 335 335 335 334 334 335 335 336 335 334 331 328 325 322 318 313 310 307 305 304 305 305 307 308 307 304 303 304 304 302 299 298 297 293 289 285 279 274 270 264 259 255 252 249 246 244 243 243 243 242 240 239 238 238 236 234 230 223 215 210 207 206 206 203 200 199 200 201 201 199 196 195 197 198 201 204
336 337 336 336 336 335 335 335 336 336 336 335 335 335 334 334 335 335 335 333 330 326 323 320 315 311 307 304 303 303 303 304 306 306 304 302 302 303 303 299 297 297 296 292 288 281 275 269 264 260 256 253 251 248 244 242 241 241 241 240 238 237 237 237 235 234 229 222 216 212 209 209 207 203 200 200 201 204 205 205 204 205 206 208 210
336 337 337 337 336 336 336 336 336 336 336 336 336 335 334 334 334 335 335 334 332 328 324 321 317 313 309 304 302 301 301 302 303 303 302 300 299 301 301 298 296 295 295 294 290 285 278 270 263 258 255 254 252 249 245 242 240 239 239 239 237 236 236 236 236 235 232 228 222 217 214 212 211 208 204 202 203 206 209 210 211 212 214 215 217
336 337 338 338 337 337 337 337 337 337 337 336 336 335 334 334 334 334 334 334 333 330 326 321 318 315 311 306 302 300 299 299 300 300 299 297 296 297 298 297 294 292 292 292 291 287 282 275 267 260 255 253 251 250 246 242 239 237 236 235 235 233 233 233 234 234 233 231 227 222 218 216 215 213 210 208 207 209 211 213 215 217 219 221 223
337 338 338 339 338 338 337 337 337 337 337 336 336 336 335 334 334 334 333 333 333 331 328 324 319 315 312 308 304 300 299 298 297 297 297 295 293 293 294 295 293 289 288 288 288 285 282 277 270 264 258 253 250 249 247 243 239 235 233 231 230 229 229 229 231 232 232 231 229 226 223 221 219 218 217 214 213 213 214 216 218 220 222 224 225
337 338 339 339 339 338 337 337 337 337 337 337 336 336 335 335 334 334 333 333 332 331 330 326 321 316 312 309 305 301 298 296 295 295 294 293 291 290 290 291 291 288 285 284 284 283 281 277 272 266 261 256 252 248 246 243 240 235 231 228 226 225 224 225 226 228 228 229 228 227 225 223 222 221 221 220 219 219 219 219 221 222 224 226 227
337 338 338 339 339 338 338 337 337 337 337 337 336 336 336 335 334 333 333 332 331 331 329 327 324 319 313 309 305 301 298 295 294 293 292 290 289 287 286 287 287 286 283 281 281 281 279 277 273 268 262 258 254 249 245 243 240 235 231 227 224 223 222 221 221 222 223 224 225 225 224 223 222 222 223 223 224 224 225 226 227 228 229 231 232
338 338 338 338 339 339 338 337 337 337 336 336 336 336 335 335 334 333 333 332 331 330 329 327 325 321 316 310 304 301 297 294 292 291 290 288 286 285 284 284 283 282 281 279 277 277 276 274 271 268 263 259 255 250 245 242 240 236 232 227 224 222 220 218 217 217 218 218 219 220 221 221 221 221 222 223 224 226 227 229 230 232 233 234 235
339 339 339 339 339 339 338 338 337 336 336 336 335 335 335 335 334 334 333 332 331 329 328 326 325 322 318 313 306 300 296 293 290 288 287 286 284 282 281 281 279 279 278 276 273 272 272 271 269 267 263 259 255 251 246 242 239 236 233 228 224 221 219 216 214 212 212 213 214 214 215 215 216 217 218 220 221 223 225 227 228 230 231 232 232
341 340 340 340 340 339 338 338 337 336 336 335 335 335 335 335 334 334 333 332 330 329 327 326 324 322 319 316 310 302 295 291 288 285 284 282 281 279 278 277 276 275 274 273 271 269 267 267 266 265 262 258 254 251 246 242 238 236 233 229 226 222 218 216 213 210 208 208 209 210 210 211 211 211 212 213 214 216 217 218 219 220 222 223 223
Height
2959 2957 2954 2952 2949 2947 2945 2942 2940 2938 2935 2933 2930 2928 2926 2923 2920 2918 2916 2913 2911 2909 2907 2905 2902 2900 2898 2896 2895 2893 2891 2890 2888 2887 2886 2884 2883 2881 2880 2879 2877 2876 2875 2874 2873 2872 2871 2871 2870 2870 2869 2868 2868 2867 2867 2866 2865 2864 2864 2863 2863 2862 2862 2861 2857 2858 2862 2863 2869 2877 2878 2877 2877 2877 2877 2878 2878 2879 2880 2882 2884 2885 2885 2887 2889
2955 2952 2950 2947 2945 2942 2940 2937 2935 2932 2930 2927 2924 2921 2919 2916 2913 2911 2909 2907 2904 2902 2900 2898 2895 2893 2891 2889 2887 2885 2883 2882 2880 2878 2877 2875 2874 2873 2871 2870 2868 2867 2866 2865 2864 2863 2862 2862 2861 2860 2860 2859 2859 2858 2858 2858 2856 2855 2855 2854 2853 2854 2854 2853 2851 2850 2851 2853 2857 2865 2869 2868 2868 2870 2869 2869 2871 2871 2871 2873 2875 2876 2878 2879 2880
2950 2947 2945 2942 2939 2937 2934 2931 2928 2926 2923 2920 2918 2915 2912 2909 2907 2904 2902 2900 2897 2895 2893 2890 2888 2886 2884 2881 2879 2877 2875 2874 2872 2870 2868 2867 2865 2864 2862 2861 2860 2858 2857 2856 2855 2854 2853 2852 2852 2851 2850 2849 2849 2849 2848 2848 2848 2846 2847 2846 2844 2845 2845 2845 2843 2842 2843 2845 2846 2853 2858 2858 2859 2863 2862 2860 2863 2864 2863 2864 2865 2866 2869 2871 2872
2945 2942 2939 2936 2933 2930 2928 2925 2922 2919 2916 2914 2911 2908 2906 2903 2900 2898 2895 2893 2890 2888 2885 2883 2880 2878 2876 2874 2872 2870 2868 2866 2864 2862 2860 2858 2856 2855 2853 2852 2851 2849 2848 2847 2846 2845 2844 2843 2842 2841 2840 2839 2839 2839 2838 2838 2838 2837 2837 2837 2836 2836 2837 2836 2835 2835 2835 2836 2838 2842 2847 2848 2851 2855 2854 2852 2854 2855 2855 2856 2857 2857 2859 2862 2864
2941 2937 2934 2931 2928 2925 2922 2920 2917 2914 2911 2908 2905 2902 2899 2897 2894 2891 2888 2886 2883 2880 2878 2875 2873 2870 2868 2866 2864 2862 2860 2858 2856 2854 2852 2849 2847 2846 2844 2843 2842 2840 2839 2838 2836 2835 2835 2834 2833 2832 2830 2830 2830 2830 2829 2828 2828 2828 2828 2828 2828 2827 2828 2827 2827 2827 2826 2827 2830 2833 2836 2838 2841 2845 2845 2844 2846 2847 2847 2848 2849 2850 2850 2852 2855
2937 2933 2930 2927 2924 2921 2918 2915 2912 2908 2905 2902 2899 2896 2893 2890 2887 2884 2881 2879 2876 2873 2871 2868 2865 2863 2861 2858 2856 2854 2852 2850 2847 2845 2843 2841 2839 2837 2836 2834 2833 2831 2830 2829 2828 2826 2826 2825 2825 2823 2821 2821 2821 2821 2820 2819 2819 2818 2818 2819 2819 2818 2818 2818 2818 2818 2819 2820 2822 2824 2826 2829 2831 2833 2836 2837 2837 2838 2839 2840 2841 2843 2843 2844 2845
2931 2928 2924 2921 2918 2915 2912 2908 2905 2901 2898 2895 2892 2889 2886 2883 2880 2877 2874 2871 2869 2866 2864 2861 2858 2856 2853 2851 2848 2846 2844 2842 2839 2837 2835 2832 2831 2829 2827 2825 2824 2822 2821 2820 2819 2818 2817 2816 2816 2815 2813 2812 2812 2812 2812 2811 2810 2809 2810 2810 2811 2810 2809 2809 2809 2809 2810 2812 2813 2815 2818 2820 2821 2823 2827 2828 2827 2829 2831 2832 2833 2834 2835 2836 2837
2923 2920 2917 2913 2910 2907 2904 2901 2898 2894 2891 2888 2885 2882 2879 2876 2873 2870 2867 2865 2862 2859 2856 2854 2851 2849 2846 2843 2841 2839 2836 2834 2832 2829 2827 2825 2822 2820 2819 2816 2815 2813 2812 2811 2810 2809 2808 2807 2807 2806 2804 2803 2803 2803 2802 2802 2801 2800 2801 2801 2801 2801 2801 2801 2801 2801 2801 2803 2805 2807 2809 2810 2812 2814 2816 2817 2818 2821 2823 2824 2825 2827 2827 2827 2830
2917 2914 2910 2907 2904 2901 2897 2894 2891 2888 2885 2882 2879 2876 2873 2870 2867 2864 2861 2858 2855 2852 2849 2846 2843 2841 2838 2836 2834 2831 2829 2827 2824 2821 2819 2816 2814 2812 2810 2808 2807 2805 2804 2803 2802 2801 2800 2799 2798 2798 2796 2795 2794 2794 2793 2793 2791 2791 2792 2792 2792 2792 2792 2792 2792 2793 2794 2794 2795 2798 2800 2801 2804 2806 2806 2807 2810 2813 2814 2815 2817 2818 2819 2819 2821
2912 2908 2905 2901 2898 2895 2892 2888 2885 2882 2879 2876 2873 2869 2866 2863 2860 2857 2854 2851 2848 2845 2842 2839 2836 2833 2831 2828 2826 2824 2821 2819 2817 2814 2811 2809 2806 2803 2801 2800 2798 2797 2795 2794 2793 2792 2791 2790 2789 2789 2788 2787 2787 2786 2785 2785 2783 2783 2783 2783 2783 2783 2783 2783 2784 2785 2785 2785 2787 2790 2791 2793 2796 2798 2797 2799 2802 2803 2804 2807 2808 2809 2810 2812 2814
2906 2903 2899 2896 2892 2889 2885 2882 2879 2876 2873 2869 2866 2863 2860 2857 2853 2850 2847 2844 2841 2838 2835 2832 2829 2827 2824 2821 2819 2817 2815 2813 2810 2808 2805 2802 2799 2795 2793 2791 2790 2788 2786 2785 2784 2783 2782 2781 2780 2779 2779 2778 2778 2777 2777 2776 2775 2774 2774 2775 2775 2774 2775 2775 2775 2777 2777 2777 2779 2781 2782 2785 2789 2790 2790 2791 2792 2793 2795 2798 2799 2800 2802 2804 2807
2901 2897 2893 2889 2886 2882 2879 2876 2873 2869 2866 2863 2860 2857 2853 2850 2846 2843 2840 2837 2834 2831 2828 2825 2822 2820 2816 2814 2812 2809 2808 2806 2803 2801 2799 2796 2793 2789 2786 2784 2782 2780 2779 2778 2776 2775 2773 2772 2772 2771 2770 2769 2768 2768 2768 2768 2767 2766 2766 2766 2766 2766 2767 2767 2767 2768 2769 2770 2771 2773 2774 2777 2781 2781 2782 2783 2783 2785 2788 2789 2790 2792 2795 2797 2799
2895 2891 2887 2883 2880 2876 2873 2870 2866 2863 2860 2856 2853 2850 2847 2843 2840 2836 2834 2831 2828 2825 2822 2818 2816 2813 2809 2807 2805 2802 2801 2798 2796 2793 2791 2789 2786 2783 2779 2777 2775 2774 2772 2771 2769 2768 2766 2765 2764 2763 2762 2761 2760 2759 2758 2758 2758 2758 2757 2757 2757 2758 2759 2760 2760 2761 2762 2763 2763 2764 2767 2770 2772 2773 2775 2776 2777 2777 2779 2781 2783 2785 2787 2790 2792
2889 2885 2881 2877 2874 2870 2867 2863 2860 2857 2853 2850 2847 2843 2840 2837 2833 2830 2827 2824 2821 2818 2815 2812 2809 2806 2802 2800 2797 2795 2794 2791 2789 2787 2784 2782 2779 2776 2772 2771 2769 2767 2766 2765 2763 2762 2760 2758 2756 2755 2755 2754 2752 2751 2750 2750 2749 2749 2748 2748 2748 2749 2750 2751 2753 2754 2755 2756 2755 2757 2760 2763 2765 2766 2768 2770 2771 2771 2772 2775 2777 2779 2780 2783 2785
2884 2880 2876 2872 2868 2865 2861 2858 2855 2851 2848 2844 2841 2838 2834 2830 2827 2823 2820 2818 2814 2811 2808 2805 2803 2800 2796 2793 2790 2789 2787 2784 2782 2780 2778 2775 2772 2769 2766 2764 2763 2761 2760 2759 2758 2756 2755 2753 2750 2749 2748 2748 2746 2745 2743 2742 2741 2740 2740 2739 2740 2741 2742 2743 2745 2746 2748 2749 2749 2750 2753 2756 2758 2760 2762 2764 2765 2765 2767 2769 2770 2772 2773 2775 2777
2879 2875 2871 2867 2863 2860 2856 2853 2849 2846 2843 2839 2836 2832 2829 2825 2821 2818 2815 2812 2809 2805 2802 2799 2796 2793 2790 2787 2784 2782 2780 2778 2775 2774 2771 2768 2765 2762 2760 2758 2757 2755 2754 2753 2752 2751 2749 2747 2745 2744 2743 2741 2741 2739 2738 2735 2733 2731 2731 2731 2732 2733 2734 2736 2738 2739 2741 2742 2743 2745 2747 2749 2752 2754 2756 2758 2759 2760 2763 2763 2764 2765 2767 2768 2770
2874 2870 2866 2862 2858 2854 2851 2847 2844 2841 2837 2834 2830 2827 2823 2820 2816 2812 2809 2806 2803 2800 2796 2793 2790 2787 2783 2780 2777 2775 2774 2772 2769 2767 2765 2762 2759 2756 2754 2752 2751 2749 2748 2747 2746 2745 2743 2742 2741 2739 2737 2736 2736 2734 2733 2730 2727 2724 2724 2724 2724 2725 2726 2728 2731 2732 2735 2737 2739 2741 2742 2745 2747 2750 2752 2753 2754 2756 2757 2757 2757 2759 2760 2762 2764
2869 2865 2861 2857 2853 2849 2845 2842 2838 2835 2831 2828 2824 2821 2817 2814 2810 2807 2803 2800 2797 2794 2791 2787 2784 2781 2777 2774 2771 2768 2767 2765 2762 2761 2759 2757 2753 2750 2749 2746 2744 2743 2742 2741 2741 2739 2738 2737 2736 2734 2733 2732 2731 2729 2728 2725 2722 2719 2718 2718 2718 2718 2719 2722 2723 2725 2728 2731 2733 2736 2738 2740 2743 2745 2747 2749 2750 2750 2750 2751 2752 2754 2755 2757 2759
2864 2861 2857 2853 2848 2844 2840 2837 2833 2829 2825 2822 2818 2815 2811 2808 2804 2801 2797 2794 2791 2788 2784 2781 2778 2775 2772 2769 2766 2763 2760 2758 2756 2754 2752 2750 2748 2745 2743 2740 2738 2737 2736 2736 2735 2733 2732 2731 2730 2730 2729 2727 2726 2724 2723 2721 2718 2715 2714 2713 2712 2712 2714 2717 2718 2719 2722 2724 2726 2729 2731 2733 2736 2738 2740 2743 2745 2745 2745 2746 2748 2749 2750 2752 2754
2860 2856 2852 2848 2844 2840 2836 2832 2828 2824 2820 2816 2813 2809 2805 2802 2799 2795 2792 2788 2785 2782 2778 2775 2772 2769 2766 2763 2760 2758 2755 2752 2750 2748 2746 2744 2742 2740 2738 2735 2733 2732 2732 2731 2728 2727 2727 2726 2725 2724 2724 2723 2721 2719 2718 2717 2714 2712 2710 2708 2707 2707 2710 2712 2713 2714 2716 2718 2721 2723 2725 2727 2729 2731 2734 2737 2739 2740 2740 2741 2743 2744 2745 2747 2749
2856 2852 2848 2844 2840 2835 2831 2827 2823 2819 2815 2810 2807 2804 2800 2796 2793 2789 2786 2783 2780 2776 2773 2769 2766 2764 2761 2758 2755 2753 2750 2747 2745 2743 2740 2738 2737 2735 2733 2730 2729 2729 2727 2725 2723 2722 2722 2721 2720 2719 2719 2717 2716 2714 2713 2711 2710 2708 2705 2703 2703 2705 2707 2708 2709 2711 2712 2714 2716 2717 2719 2721 2723 2725 2728 2730 2732 2735 2736 2736 2737 2740 2741 2742 2745
2851 2847 2843 2839 2835 2830 2826 2822 2818 2814 2809 2805 2801 2798 2794 2790 2787 2783 2780 2777 2774 2771 2767 2764 2761 2758 2756 2753 2750 2748 2745 2742 2740 2737 2735 2733 2731 2730 2728 2726 2726 2725 2722 2719 2717 2717 2717 2716 2715 2715 2714 2712 2711 2709 2707 2706 2705 2703 2701 2700 2701 2703 2704 2705 2706 2707 2708 2709 2711 2712 2713 2714 2717 2719 2722 2724 2726 2729 2731 2732 2734 2736 2737 2740 2742
2846 2842 2838 2834 2829 2825 2821 2817 2813 2808 2804 2799 2796 2792 2788 2784 2781 2777 2774 2770 2767 2765 2762 2758 2755 2753 2750 2748 2746 2743 2740 2738 2735 2733 2730 2727 2725 2724 2723 2722 2722 2720 2716 2713 2712 2712 2712 2711 2711 2710 2709 2707 2705 2704 2702 2701 2700 2698 2697 2697 2698 2699 2701 2701 2702 2703 2704 2705 2706 2707 2708 2710 2711 2713 2716 2719 2721 2724 2727 2729 2730 2732 2734 2737 2739
2842 2837 2833 2829 2824 2820 2816 2812 2808 2803 2799 2794 2790 2787 2783 2779 2776 2772 2768 2765 2761 2758 2755 2752 2749 2747 2744 2742 2741 2739 2736 2733 2731 2728 2725 2722 2720 2718 2717 2716 2715 2713 2710 2709 2708 2707 2707 2707 2706 2705 2704 2702 2700 2698 2697 2695 2695 2694 2694 2694 2694 2695 2696 2697 2698 2699 2700 2700 2702 2703 2704 2706 2707 2709 2711 2714 2718 2721 2723 2725 2726 2728 2730 2733 2735
2838 2833 2829 2824 2820 2815 2811 2807 2803 2798 2793 2789 2785 2781 2777 2774 2770 2767 2763 2759 2756 2752 2750 2747 2744 2741 2738 2736 2734 2733 2731 2728 2726 2723 2721 2718 2715 2713 2712 2710 2709 2708 2706 2705 2704 2704 2704 2702 2701 2700 2699 2697 2695 2693 2691 2690 2690 2690 2690 2689 2690 2690 2692 2693 2694 2695 2695 2697 2698 2699 2701 2703 2704 2706 2709 2712 2714 2716 2717 2719 2721 2723 2725 2727 2730
2834 2829 2825 2820 2815 2811 2806 2802 2798 2793 2789 2784 2779 2776 2772 2768 2765 2762 2758 2754 2751 2747 2744 2741 2738 2735 2732 2730 2728 2727 2726 2724 2721 2718 2716 2713 2710 2708 2707 2705 2704 2703 2702 2700 2700 2700 2700 2699 2697 2696 2695 2692 2690 2687 2686 2685 2685 2685 2685 2685 2685 2686 2687 2688 2690 2690 2692 2694 2695 2697 2698 2700 2701 2704 2706 2707 2709 2710 2711 2713 2716 2719 2721 2723 2726
2830 2825 2820 2816 2811 2807 2802 2798 2793 2789 2784 2780 2775 2771 2767 2763 2760 2756 2753 2748 2745 2743 2740 2736 2733 2730 2727 2724 2722 2721 2720 2718 2716 2713 2711 2708 2705 2703 2702 2700 2699 2698 2696 2695 2695 2695 2695 2695 2694 2692 2690 2688 2685 2682 2680 2679 2679 2680 2680 2681 2681 2682 2683 2685 2686 2687 2688 2691 2692 2694 2696 2697 2698 2699 2701 2702 2704 2706 2707 2709 2712 2715 2717 2719 2721
2825 2821 2816 2811 2807 2802 2798 2793 2788 2784 2779 2775 2771 2766 2763 2759 2755 2752 2748 2744 2740 2738 2735 2732 2728 2725 2721 2718 2716 2715 2713 2713 2711 2708 2706 2703 2700 2698 2697 2696 2694 2692 2691 2690 2690 2689 2689 2690 2690 2688 2686 2684 2681 2678 2676 2675 2674 2675 2676 2677 2678 2678 2680 2682 2683 2684 2685 2687 2689 2690 2692 2693 2693 2695 2697 2699 2700 2702 2704 2706 2708 2710 2713 2715 2717
2821 2817 2812 2807 2802 2798 2793 2788 2783 2779 2774 2770 2766 2762 2759 2754 2750 2747 2744 2740 2736 2732 2730 2727 2723 2719 2716 2713 2711 2708 2706 2706 2706 2704 2701 2698 2695 2693 2692 2691 2689 2687 2686 2686 2684 2683 2684 2685 2685 2684 2682 2680 2677 2675 2673 2672 2671 2672 2672 2673 2674 2675 2676 2677 2679 2680 2682 2684 2685 2687 2688 2689 2690 2692 2694 2695 2697 2698 2700 2702 2704 2706 2709 2711 2713
2817 2813 2808 2803 2798 2793 2788 2784 2779 2774 2769 2765 2761 2758 2755 2751 2747 2743 2740 2736 2733 2729 2726 2723 2719 2715 2711 2709 2707 2704 2701 2700 2700 2699 2697 2695 2692 2690 2689 2688 2685 2683 2682 2681 2680 2679 2680 2681 2681 2680 2678 2677 2675 2673 2672 2670 2669 2669 2670 2671 2671 2672 2673 2674 2675 2677 2679 2680 2682 2684 2685 2686 2688 2689 2691 2692 2694 2695 2696 2698 2700 2702 2705 2707 2710
2812 2808 2803 2799 2794 2789 2784 2779 2774 2769 2764 2760 2755 2752 2749 2747 2744 2740 2736 2733 2729 2727 2724 2721 2717 2712 2709 2706 2704 2702 2699 2697 2696 2695 2694 2691 2688 2687 2686 2685 2682 2680 2679 2678 2676 2676 2676 2676 2677 2676 2675 2674 2673 2671 2670 2669 2668 2668 2668 2668 2668 2668 2669 2671 2672 2673 2675 2677 2678 2680 2682 2684 2685 2687 2688 2689 2691 2692 2693 2695 2697 2698 2701 2704 2707
2808 2803 2799 2794 2789 2785 2780 2775 2770 2765 2760 2756 2751 2747 2743 2741 2739 2737 2734 2730 2727 2724 2721 2718 2714 2711 2707 2705 2702 2699 2697 2694 2692 2692 2690 2687 2685 2684 2683 2681 2678 2676 2675 2674 2673 2672 2672 2673 2673 2673 2672 2672 2671 2670 2669 2668 2667 2666 2666 2665 2665 2665 2666 2667 2668 2670 2672 2673 2675 2677 2679 2681 2683 2684 2685 2687 2688 2689 2690 2692 2693 2695 2698 2702 2705
2804 2799 2794 2789 2785 2780 2776 2771 2766 2761 2756 2752 2747 2743 2739 2735 2732 2731 2730 2727 2725 2721 2718 2714 2710 2707 2705 2703 2700 2697 2694 2691 2689 2688 2686 2683 2681 2680 2679 2677 2675 2673 2672 2671 2670 2669 2669 2669 2670 2670 2670 2669 2669 2668 2668 2667 2666 2665 2664 2663 2662 2662 2663 2664 2665 2666 2668 2670 2672 2674 2676 2678 2680 2682 2683 2684 2685 2686 2687 2689 2691 2693 2696 2699 2702
2800 2795 2790 2785 2781 2777 2772 2767 2762 2757 2753 2748 2743 2739 2735 2731 2727 2724 2723 2721 2720 2718 2715 2712 2708 2704 2701 2700 2698 2695 2693 2690 2687 2684 2682 2680 2678 2677 2676 2674 2672 2670 2669 2668 2667 2666 2666 2666 2667 2667 2667 2667 2666 2666 2666 2666 2665 2664 2663 2662 2661 2661 2661 2661 2662 2663 2665 2667 2668 2670 2673 2676 2678 2679 2680 2681 2682 2683 2685 2686 2688 2691 2693 2697 2700
2797 2792 2788 2782 2777 2773 2769 2764 2759 2754 2749 2745 2740 2736 2732 2728 2724 2720 2717 2715 2713 2712 2710 2708 2705 2701 2698 2696 2694 2692 2690 2687 2684 2682 2679 2677 2675 2674 2673 2671 2669 2667 2666 2664 2664 2663 2663 2663 2663 2664 2664 2664 2664 2664 2664 2664 2664 2663 2662 2662 2661 2660 2660 2660 2661 2661 2662 2663 2665 2667 2669 2672 2675 2676 2678 2679 2680 2681 2683 2684 2686 2689 2692 2695 2699
2794 2789 2784 2779 2774 2770 2765 2761 2756 2751 2746 2741 2737 2733 2728 2724 2720 2717 2714 2711 2708 2706 2704 2703 2701 2698 2695 2692 2690 2688 2686 2683 2681 2679 2676 2674 2672 2671 2669 2668 2666 2665 2664 2662 2661 2660 2660 2660 2660 2661 2661 2661 2662 2662 2662 2662 2662 2662 2662 2661 2661 2660 2659 2659 2659 2660 2660 2661 2662 2664 2667 2669 2672 2674 2676 2677 2678 2679 2681 2683 2685 2688 2691 2695 2698
2790 2785 2780 2775 2770 2766 2762 2757 2753 2748 2743 2738 2733 2729 2725 2721 2717 2714 2710 2707 2704 2702 2700 2698 2696 2694 2692 2689 2686 2685 2683 2680 2678 2676 2673 2671 2669 2668 2666 2665 2663 2662 2661 2660 2659 2658 2657 2657 2657 2657 2658 2659 2659 2659 2659 2660 2660 2660 2660 2660 2660 2660 2659 2659 2659 2659 2659 2660 2661 2662 2665 2668 2670 2672 2674 2675 2677 2678 2680 2682 2685 2688 2691 2694 2697
2788 2783 2777 2772 2767 2762 2758 2753 2749 2745 2740 2735 2731 2726 2722 2718 2714 2710 2707 2704 2701 2698 2696 2693 2691 2689 2688 2686 2684 2682 2680 2678 2675 2673 2671 2668 2667 2665 2664 2662 2660 2659 2658 2657 2656 2655 2655 2654 2654 2654 2655 2655 2656 2656 2657 2657 2658 2658 2658 2658 2659 2659 2659 2659 2659 2658 2658 2659 2660 2662 2664 2667 2669 2671 2672 2674 2676 2677 2680 2682 2685 2687 2690 2693 2695
2784 2780 2775 2769 2764 2760 2754 2750 2745 2741 2737 2732 2728 2723 2719 2715 2711 2707 2704 2701 2698 2695 2692 2690 2688 2685 2683 2682 2680 2678 2676 2675 2673 2671 2669 2666 2664 2663 2661 2660 2658 2656 2655 2654 2653 2653 2652 2652 2652 2652 2652 2652 2653 2653 2654 2654 2655 2656 2656 2656 2657 2657 2658 2658 2658 2658 2658 2659 2660 2662 2664 2666 2668 2669 2671 2673 2674 2676 2679 2682 2684 2687 2689 2692 2694
2781 2776 2772 2766 2761 2757 2752 2747 2742 2738 2733 2729 2725 2721 2716 2712 2708 2704 2700 2697 2694 2692 2689 2687 2684 2682 2680 2678 2676 2674 2673 2671 2669 2667 2665 2664 2662 2660 2659 2657 2656 2654 2653 2651 2650 2650 2649 2649 2649 2649 2649 2649 2650 2650 2651 2651 2652 2653 2653 2654 2655 2655 2656 2657 2657 2658 2658 2659 2659 2661 2663 2664 2666 2668 2670 2671 2673 2675 2677 2680 2683 2686 2689 2691 2694
2777 2772 2768 2763 2758 2753 2749 2744 2740 2735 2730 2726 2722 2717 2713 2709 2705 2701 2697 2694 2691 2688 2686 2683 2681 2679 2676 2674 2672 2670 2669 2667 2666 2664 2662 2660 2659 2657 2656 2655 2653 2652 2650 2649 2648 2647 2647 2647 2646 2646 2646 2646 2647 2647 2648 2648 2649 2650 2651 2651 2652 2653 2654 2655 2656 2657 2658 2658 2659 2660 2661 2663 2665 2667 2669 2671 2673 2675 2677 2679 2682 2685 2688 2690 2692
2773 2769 2764 2760 2755 2750 2746 2741 2737 2732 2727 2723 2719 2714 2710 2706 2702 2699 2695 2691 2688 2685 2682 2680 2678 2676 2673 2671 2669 2667 2665 2664 2662 2661 2659 2657 2656 2654 2653 2652 2651 2649 2648 2647 2646 2645 2644 2644 2644 2644 2644 2644 2644 2644 2645 2645 2646 2647 2647 2648 2649 2650 2651 2652 2654 2655 2656 2657 2658 2659 2660 2662 2663 2665 2667 2669 2672 2674 2676 2679 2681 2684 2686 2688 2691
2770 2765 2761 2756 2752 2747 2743 2738 2733 2729 2725 2720 2716 2711 2707 2703 2699 2696 2692 2688 2685 2682 2679 2677 2675 2673 2671 2668 2666 2664 2662 2660 2659 2658 2656 2655 2653 2652 2650 2649 2648 2647 2646 2645 2644 2643 2642 2642 2641 2641 2641 2641 2641 2642 2642 2642 2643 2644 2644 2645 2646 2647 2648 2649 2651 2652 2654 2655 2657 2658 2659 2660 2662 2664 2666 2668 2670 2673 2675 2677 2680 2682 2684 2686 2689
2766 2762 2758 2753 2749 2744 2739 2735 2730 2726 2722 2717 2713 2709 2704 2700 2697 2693 2689 2686 2682 2679 2676 2673 2671 2669 2667 2665 2663 2661 2659 2657 2656 2655 2653 2652 2650 2649 2648 2647 2646 2644 2643 2642 2641 2640 2640 2639 2639 2639 2639 2639 2639 2639 2639 2640 2640 2641 2641 2642 2643 2644 2645 2646 2648 2649 2651 2653 2654 2656 2657 2659 2660 2662 2664 2666 2668 2671 2673 2675 2678 2680 2682 2684 2686
2763 2759 2754 2750 2745 2741 2736 2731 2727 2723 2718 2714 2710 2706 2702 2698 2694 2690 2686 2683 2680 2676 2673 2670 2668 2666 2664 2662 2660 2658 2656 2655 2653 2652 2650 2649 2648 2646 2645 2644 2643 2642 2641 2640 2639 2638 2637 2637 2637 2636 2636 2637 2637 2637 2637 2637 2638 2638 2639 2639 2640 2641 2642 2643 2645 2646 2648 2650 2652 2653 2655 2657 2658 2660 2662 2664 2666 2669 2671 2673 2675 2678 2680 2682 2684
2760 2755 2751 2746 2742 2737 2733 2728 2724 2720 2715 2711 2707 2703 2699 2695 2691 2687 2683 2680 2677 2673 2670 2667 2665 2662 2660 2658 2657 2655 2653 2652 2650 2648 2647 2646 2645 2644 2643 2642 2641 2640 2639 2638 2637 2636 2635 2635 2634 2634 2634 2634 2634 2635 2635 2635 2635 2636 2636 2637 2638 2639 2639 2641 2642 2643 2645 2647 2648 2650 2652 2654 2656 2658 2660 2662 2664 2666 2668 2671 2673 2675 2677 2679 2681
2757 2752 2748 2743 2739 2734 2730 2726 2721 2717 2712 2708 2704 2700 2696 2692 2688 2684 2680 2677 2674 2670 2667 2664 2661 2659 2657 2655 2653 2651 2650 2648 2647 2645 2644 2643 2642 2641 2640 2639 2638 2637 2636 2635 2635 2634 2633 2632 2632 2632 2632 2632 2632 2632 2633 2633 2633 2634 2634 2635 2635 2636 2637 2638 2639 2640 2642 2643 2645 2647 2649 2651 2653 2655 2657 2659 2661 2663 2666 2668 2670 2672 2674 2676 2678
2753 2749 2745 2740 2736 2731 2727 2723 2718 2714 2709 2705 2701 2697 2693 2689 2685 2681 2677 2674 2671 2667 2664 2661 2658 2656 2653 2651 2649 2648 2646 2645 2643 2642 2641 2640 2639 2638 2637 2636 2635 2635 2634 2633 2632 2631 2631 2630 2630 2629 2629 2629 2629 2630 2630 2631 2631 2632 2632 2633 2633 2634 2635 2636 2637 2638 2639 2641 2642 2644 2646 2648 2650 2652 2654 2656 2658 2660 2662 2664 2666 2668 2670 2672 2674
2750 2746 2742 2737 2733 2729 2724 2720 2715 2711 2706 2702 2698 2694 2690 2686 2682 2678 2674 2671 2667 2664 2661 2658 2655 2652 2650 2648 2646 2644 2642 2641 2640 2638 2637 2636 2636 2635 2634 2633 2632 2632 2631 2630 2630 2629 2629 2628 2628 2627 2627 2627 2627 2627 2628 2628 2629 2629 2630 2630 2631 2632 2633 2634 2635 2636 2637 2638 2640 2641 2643 2645 2647 2649 2651 2653 2655 2657 2659 2661 2663 2665 2667 2669 2671
2747 2743 2738 2734 2730 2726 2722 2717 2713 2708 2704 2699 2695 2691 2687 2683 2679 2675 2671 2668 2664 2661 2658 2655 2652 2649 2647 2644 2642 2640 2639 2637 2636 2635 2634 2633 2632 2631 2631 2630 2629 2629 2628 2628 2627 2627 2626 2626 2625 2625 2625 2625 2625 2625 2625 2626 2627 2627 2628 2628 2629 2630 2631 2632 2633 2634 2635 2636 2638 2639 2641 2642 2644 2646 2648 2650 2652 2654 2655 2657 2659 2661 2663 2665 2667
2744 2740 2735 2731 2727 2723 2719 2714 2710 2706 2701 2696 2692 2688 2683 2679 2676 2672 2668 2664 2661 2657 2654 2651 2648 2646 2643 2641 2638 2637 2635 2633 2632 2631 2630 2629 2628 2628 2627 2627 2626 2626 2626 2625 2625 2624 2624 2623 2623 2623 2623 2622 2622 2623 2623 2624 2624 2625 2626 2626 2627 2628 2629 2630 2631 2632 2633 2634 2636 2637 2639 2640 2642 2644 2646 2647 2649 2651 2653 2655 2656 2658 2660 2662 2664